Moffett Field, CA

12:59 PM PDT on August 28, 2016 (GMT -0700)
Moffett Federal Air Field

Weather History for KNUQ - May, 2014

Change the Weather History Date:

Saturday, May 3, 2014

  Actual Average Record
Temperature  
Mean Temperature 63 °F 61 °F  
Max Temperature 70 °F 71 °F 88 °F (2013)
Min Temperature 56 °F 52 °F 40 °F (1949)
Degree Days  
Heating Degree Days 2    
Month to date heating degree days 2  
Since 1 July heating degree days 1740  
Cooling Degree Days 0    
Month to date cooling degree days 12  
Year to date cooling degree days 38  
Growing Degree Days 12 (Base 50)    
Moisture  
Dew Point 50 °F    
Average Humidity 65    
Maximum Humidity 86    
Minimum Humidity 44    
Precipitation  
Precipitation 0.00 in 0.03 in 0.39 in (1951)
Month to date precipitation 0.00 0.08  
Year to date precipitation 5.18 9.14  
Since 1 July precipitation 6.44  
Sea Level Pressure  
Sea Level Pressure 30.05 in    
Wind  
Wind Speed 8 mph (NNW)    
Max Wind Speed 25 mph    
Max Gust Speed 30 mph    
Visibility 10 miles    
Events      
T = Trace of Precipitation, MM = Missing Value Source: NWS Daily Summary

Daily Weather History Graph

Daily Weather History Graph

Search for Another Location

Airport or City:

Trip Planner

Search our weather history database for the weather conditions in past years. The results will help you decide how hot, cold, wet, or windy it might be!

Date:

Astronomy

May. 03, 2014 Rise Set
Actual Time 6:10 AM PDT 7:59 PM PDT
Civil Twilight 5:42 AM PDT 8:28 PM PDT
Nautical Twilight 5:08 AM PDT 9:02 PM PDT
Astronomical Twilight 4:31 AM PDT 9:39 PM PDT
Moon 9:46 AM PDT (5/3) No Moon Set
Length of Visible Light 14h 45m
Length of Day
13h 49m
Waxing Crescent, 20% of the Moon is Illuminated
May 3
Waxing Crescent
May 6
First Quarter
May 14
Full
May 21
Last Quarter
May 28
New

Hourly Weather History & Observations

Time (PDT) Temp. Dew Point Humidity Pressure Visibility Wind Dir Wind Speed Gust Speed Precip Events Conditions
12:56 AM 57.0 °F 52.0 °F 83% 30.08 in 10.0 mi NNE 3.5 mph - N/A   Clear
1:56 AM 55.9 °F 52.0 °F 87% 30.07 in 10.0 mi NNE 4.6 mph - N/A   Clear
2:11 AM 57.2 °F 53.6 °F 88% 30.06 in 10.0 mi NNE 3.5 mph - N/A   Mostly Cloudy
2:56 AM 57.9 °F 53.1 °F 84% 30.06 in 10.0 mi NNE 3.5 mph - N/A   Overcast
3:56 AM 57.9 °F 53.1 °F 84% 30.06 in 10.0 mi North 4.6 mph - N/A   Overcast
4:56 AM 57.0 °F 51.1 °F 81% 30.06 in 10.0 mi NW 3.5 mph - N/A   Overcast
5:56 AM 57.0 °F 51.1 °F 81% 30.06 in 10.0 mi North 5.8 mph - N/A   Overcast
6:56 AM 55.9 °F 50.0 °F 80% 30.07 in 10.0 mi WNW 3.5 mph - N/A   Overcast
7:56 AM 57.0 °F 48.9 °F 74% 30.07 in 10.0 mi NW 4.6 mph - N/A   Overcast
8:33 AM 57.2 °F 50.0 °F 77% 30.06 in 10.0 mi North 6.9 mph - N/A   Overcast
8:56 AM 59.0 °F 50.0 °F 72% 30.07 in 10.0 mi Variable 3.5 mph - N/A   Scattered Clouds
9:56 AM 61.0 °F 51.1 °F 70% 30.07 in 10.0 mi Variable 6.9 mph - N/A   Partly Cloudy
10:56 AM 62.1 °F 51.1 °F 67% 30.07 in 10.0 mi NNE 6.9 mph - N/A   Clear
11:56 AM 64.0 °F 52.0 °F 65% 30.06 in 10.0 mi North 13.8 mph - N/A   Clear
12:56 PM 66.0 °F 51.1 °F 59% 30.05 in 10.0 mi North 20.7 mph - N/A   Clear
1:56 PM 69.1 °F 48.0 °F 47% 30.04 in 10.0 mi North 23.0 mph 27.6 mph N/A   Clear
2:56 PM 69.1 °F 48.9 °F 49% 30.03 in 10.0 mi North 21.9 mph - N/A   Clear
3:56 PM 68.0 °F 50.0 °F 52% 30.01 in 10.0 mi NNW 21.9 mph - N/A   Clear
4:56 PM 69.1 °F 46.0 °F 44% 30.01 in 10.0 mi NW 6.9 mph 16.1 mph N/A   Clear
5:56 PM 66.9 °F 45.0 °F 45% 30.01 in 10.0 mi WNW 10.4 mph - N/A   Clear
6:56 PM 64.0 °F 46.0 °F 52% 30.02 in 10.0 mi West 9.2 mph 17.3 mph N/A   Clear
7:56 PM 60.1 °F 46.9 °F 62% 30.04 in 10.0 mi WNW 10.4 mph 17.3 mph N/A   Clear
8:56 PM 59.0 °F 48.0 °F 67% 30.05 in 10.0 mi WNW 8.1 mph - N/A   Clear
9:56 PM 57.9 °F 48.9 °F 72% 30.06 in 10.0 mi West 3.5 mph - N/A   Clear
10:56 PM 57.9 °F 48.0 °F 70% 30.06 in 10.0 mi Calm Calm - N/A   Clear
11:56 PM 57.0 °F 46.9 °F 69% 30.06 in 10.0 mi Calm Calm - N/A   Clear